Time,TemperatureF,DewpointF,PressureIn,WindDirection,WindDirectionDegrees,WindSpeedMPH,WindSpeedGustMPH,Humidity,HourlyPrecipIn,Conditions,Clouds,dailyrainin,SolarRadiationWatts/m^2,SoftwareType,DateUTC
2013-04-22 00:00:00,40.7,35.6,30.26,East,81,0.0,0.0,82,0.00,,,0.00,0,Wunderground v.1.15,2013-04-22 04:00:00,
2013-04-22 00:05:00,40.6,35.8,30.26,East,81,0.0,0.0,83,0.00,,,0.00,0,Wunderground v.1.15,2013-04-22 04:05:00,
2013-04-22 00:10:00,40.5,35.7,30.27,East,81,0.0,0.0,83,0.00,,,0.00,0,Wunderground v.1.15,2013-04-22 04:10:00,
2013-04-22 00:15:00,40.4,35.9,30.26,East,81,0.0,0.0,84,0.00,,,0.00,0,Wunderground v.1.15,2013-04-22 04:15:00,
2013-04-22 00:25:00,40.4,36.2,30.26,East,81,0.0,0.0,85,0.00,,,0.00,0,Wunderground v.1.15,2013-04-22 04:25:00,
2013-04-22 00:30:00,40.6,35.8,30.26,East,93,0.0,0.0,83,0.00,,,0.00,0,Wunderground v.1.15,2013-04-22 04:30:00,
2013-04-22 00:35:00,41.2,35.2,30.26,East,92,0.0,0.0,79,0.00,,,0.00,0,Wunderground v.1.15,2013-04-22 04:35:00,
2013-04-22 00:40:00,42.3,35.3,30.26,ESE,106,0.0,0.0,76,0.00,,,0.00,0,Wunderground v.1.15,2013-04-22 04:40:00,
2013-04-22 00:45:00,43.6,34.5,30.26,East,86,1.0,1.0,70,0.00,,,0.00,0,Wunderground v.1.15,2013-04-22 04:45:00,
2013-04-22 00:50:00,44.7,36.2,30.26,ESE,111,0.0,1.0,72,0.00,,,0.00,0,Wunderground v.1.15,2013-04-22 04:50:00,
2013-04-22 01:00:00,44.4,35.6,30.26,East,98,0.0,0.0,71,0.00,,,0.00,0,Wunderground v.1.15,2013-04-22 05:00:00,
2013-04-22 01:05:00,44.6,35.8,30.25,East,98,0.0,0.0,71,0.00,,,0.00,0,Wunderground v.1.15,2013-04-22 05:05:00,
2013-04-22 01:10:00,44.6,36.1,30.25,East,98,0.0,0.0,72,0.00,,,0.00,0,Wunderground v.1.15,2013-04-22 05:10:00,
2013-04-22 01:20:00,44.4,35.2,30.25,East,98,0.0,0.0,70,0.00,,,0.00,0,Wunderground v.1.15,2013-04-22 05:20:00,
2013-04-22 01:25:00,44.5,35.7,30.25,East,98,0.0,0.0,71,0.00,,,0.00,0,Wunderground v.1.15,2013-04-22 05:25:00,
2013-04-22 01:30:00,44.3,36.5,30.25,East,98,0.0,0.0,74,0.00,,,0.00,0,Wunderground v.1.15,2013-04-22 05:30:00,
2013-04-22 01:40:00,44.4,34.9,30.25,ENE,62,0.0,1.0,69,0.00,,,0.00,0,Wunderground v.1.15,2013-04-22 05:40:00,
2013-04-22 01:45:00,45.6,33.3,30.25,ENE,68,2.0,3.0,62,0.00,,,0.00,0,Wunderground v.1.15,2013-04-22 05:45:00,
2013-04-22 01:55:00,47.3,32.8,30.24,ENE,71,2.0,2.0,57,0.00,,,0.00,0,Wunderground v.1.15,2013-04-22 05:55:00,
2013-04-22 02:00:00,47.5,33.0,30.24,ENE,62,1.0,1.0,57,0.00,,,0.00,0,Wunderground v.1.15,2013-04-22 06:00:00,
2013-04-22 02:10:00,47.2,34.0,30.24,ENE,77,1.0,1.0,60,0.00,,,0.00,0,Wunderground v.1.15,2013-04-22 06:10:00,
2013-04-22 02:15:00,46.6,33.9,30.24,ENE,65,0.0,1.0,61,0.00,,,0.00,0,Wunderground v.1.15,2013-04-22 06:15:00,
2013-04-22 02:20:00,46.1,34.2,30.24,NE,34,0.0,0.0,63,0.00,,,0.00,0,Wunderground v.1.15,2013-04-22 06:20:00,
2013-04-22 02:30:00,45.0,35.4,30.24,NE,34,0.0,0.0,69,0.00,,,0.00,0,Wunderground v.1.15,2013-04-22 06:30:00,
2013-04-22 02:35:00,44.3,35.1,30.24,NE,34,0.0,0.0,70,0.00,,,0.00,0,Wunderground v.1.15,2013-04-22 06:35:00,
2013-04-22 02:45:00,43.4,34.6,30.23,NNE,33,0.0,0.0,71,0.00,,,0.00,0,Wunderground v.1.15,2013-04-22 06:45:00,
2013-04-22 02:50:00,43.5,34.7,30.23,ENE,64,0.0,0.0,71,0.00,,,0.00,0,Wunderground v.1.15,2013-04-22 06:50:00,
2013-04-22 02:55:00,43.4,35.0,30.23,ENE,64,0.0,0.0,72,0.00,,,0.00,0,Wunderground v.1.15,2013-04-22 06:55:00,
2013-04-22 03:05:00,42.8,35.4,30.22,ENE,64,0.0,0.0,75,0.00,,,0.00,0,Wunderground v.1.15,2013-04-22 07:05:00,
2013-04-22 03:10:00,42.4,35.0,30.22,ENE,64,0.0,0.0,75,0.00,,,0.00,0,Wunderground v.1.15,2013-04-22 07:10:00,
2013-04-22 03:20:00,41.9,34.9,30.22,ENE,75,0.0,0.0,76,0.00,,,0.00,0,Wunderground v.1.15,2013-04-22 07:20:00,
2013-04-22 03:25:00,41.9,34.9,30.22,ENE,75,0.0,0.0,76,0.00,,,0.00,0,Wunderground v.1.15,2013-04-22 07:25:00,
2013-04-22 03:30:00,41.7,35.0,30.22,ENE,75,0.0,0.0,77,0.00,,,0.00,0,Wunderground v.1.15,2013-04-22 07:30:00,
2013-04-22 03:40:00,41.4,35.4,30.22,ENE,75,0.0,0.0,79,0.00,,,0.00,0,Wunderground v.1.15,2013-04-22 07:40:00,
2013-04-22 03:45:00,41.2,34.2,30.22,ENE,75,0.0,0.0,76,0.00,,,0.00,0,Wunderground v.1.15,2013-04-22 07:45:00,
2013-04-22 03:55:00,42.5,32.3,30.21,East,88,1.0,3.0,67,0.00,,,0.00,0,Wunderground v.1.15,2013-04-22 07:55:00,
2013-04-22 04:00:00,43.1,32.5,30.21,East,83,1.0,1.0,66,0.00,,,0.00,0,Wunderground v.1.15,2013-04-22 08:00:00,
2013-04-22 04:05:00,43.6,32.6,30.21,ENE,68,1.0,1.0,65,0.00,,,0.00,0,Wunderground v.1.15,2013-04-22 08:05:00,
2013-04-22 04:15:00,44.3,32.1,30.21,East,97,1.0,1.0,62,0.00,,,0.00,0,Wunderground v.1.15,2013-04-22 08:15:00,
2013-04-22 04:20:00,44.4,32.2,30.21,East,97,1.0,1.0,62,0.00,,,0.00,0,Wunderground v.1.15,2013-04-22 08:20:00,
2013-04-22 04:30:00,44.6,32.0,30.20,East,98,2.0,2.0,61,0.00,,,0.00,0,Wunderground v.1.15,2013-04-22 08:30:00,
2013-04-22 04:35:00,44.7,32.1,30.20,East,84,1.0,2.0,61,0.00,,,0.00,0,Wunderground v.1.15,2013-04-22 08:35:00,
2013-04-22 04:40:00,44.8,31.8,30.20,ESE,110,1.0,2.0,60,0.00,,,0.00,0,Wunderground v.1.15,2013-04-22 08:40:00,
2013-04-22 04:50:00,45.0,31.5,30.20,East,93,2.0,2.0,59,0.00,,,0.00,0,Wunderground v.1.15,2013-04-22 08:50:00,
2013-04-22 04:55:00,45.2,31.3,30.20,ESE,104,2.0,2.0,58,0.00,,,0.00,0,Wunderground v.1.15,2013-04-22 08:55:00,
2013-04-22 05:05:00,45.1,31.6,30.20,ESE,116,2.0,2.0,59,0.00,,,0.00,0,Wunderground v.1.15,2013-04-22 09:05:00,
2013-04-22 05:10:00,45.0,31.5,30.20,SE,141,2.0,2.0,59,0.00,,,0.00,0,Wunderground v.1.15,2013-04-22 09:10:00,
2013-04-22 05:20:00,44.8,31.8,30.20,ESE,122,1.0,3.0,60,0.00,,,0.00,0,Wunderground v.1.15,2013-04-22 09:20:00,
2013-04-22 05:25:00,44.6,31.6,30.20,East,96,1.0,3.0,60,0.00,,,0.00,0,Wunderground v.1.15,2013-04-22 09:25:00,
2013-04-22 05:30:00,44.3,31.7,30.20,ESE,106,1.0,2.0,61,0.00,,,0.00,0,Wunderground v.1.15,2013-04-22 09:30:00,
2013-04-22 05:40:00,44.1,31.1,30.20,East,83,2.0,2.0,60,0.00,,,0.00,0,Wunderground v.1.15,2013-04-22 09:40:00,
2013-04-22 05:45:00,44.2,31.6,30.20,ESE,104,1.0,3.0,61,0.00,,,0.00,0,Wunderground v.1.15,2013-04-22 09:45:00,
2013-04-22 05:55:00,43.8,31.6,30.20,ESE,108,0.0,0.0,62,0.00,,,0.00,0,Wunderground v.1.15,2013-04-22 09:55:00,
2013-04-22 06:00:00,43.7,31.5,30.20,ESE,108,0.0,0.0,62,0.00,,,0.00,0,Wunderground v.1.15,2013-04-22 10:00:00,
2013-04-22 06:05:00,43.6,31.4,30.20,ESE,108,0.0,0.0,62,0.00,,,0.00,0,Wunderground v.1.15,2013-04-22 10:05:00,
2013-04-22 06:15:00,43.4,31.2,30.20,ESE,108,0.0,0.0,62,0.00,,,0.00,0,Wunderground v.1.15,2013-04-22 10:15:00,
2013-04-22 06:20:00,43.3,30.7,30.20,ESE,108,0.0,0.0,61,0.00,,,0.00,0,Wunderground v.1.15,2013-04-22 10:20:00,
2013-04-22 06:30:00,42.9,31.2,30.21,ESE,108,0.0,0.0,63,0.00,,,0.00,0,Wunderground v.1.15,2013-04-22 10:30:00,
2013-04-22 06:35:00,42.7,31.0,30.20,ESE,108,0.0,0.0,63,0.00,,,0.00,0,Wunderground v.1.15,2013-04-22 10:35:00,
2013-04-22 06:40:00,42.5,31.9,30.20,ESE,108,0.0,0.0,66,0.00,,,0.00,0,Wunderground v.1.15,2013-04-22 10:40:00,
2013-04-22 06:50:00,42.0,31.1,30.20,ESE,108,0.0,0.0,65,0.00,,,0.00,0,Wunderground v.1.15,2013-04-22 10:50:00,
2013-04-22 06:55:00,41.9,31.4,30.20,ESE,108,0.0,0.0,66,0.00,,,0.00,0,Wunderground v.1.15,2013-04-22 10:55:00,
2013-04-22 07:00:00,41.9,31.4,30.21,ESE,108,0.0,0.0,66,0.00,,,0.00,5,Wunderground v.1.15,2013-04-22 11:00:00,
2013-04-22 07:10:00,41.5,31.4,30.21,ESE,108,0.0,0.0,67,0.00,,,0.00,11,Wunderground v.1.15,2013-04-22 11:10:00,
2013-04-22 07:15:00,41.4,31.6,30.21,ESE,108,0.0,0.0,68,0.00,,,0.00,14,Wunderground v.1.15,2013-04-22 11:15:00,
2013-04-22 07:25:00,41.2,32.2,30.21,ESE,108,0.0,0.0,70,0.00,,,0.00,21,Wunderground v.1.15,2013-04-22 11:25:00,
2013-04-22 07:30:00,41.4,32.7,30.20,ESE,108,0.0,0.0,71,0.00,,,0.00,30,Wunderground v.1.15,2013-04-22 11:30:00,
2013-04-22 07:40:00,42.4,32.2,30.20,ESE,108,0.0,0.0,67,0.00,,,0.00,53,Wunderground v.1.15,2013-04-22 11:40:00,
2013-04-22 07:45:00,43.2,32.2,30.20,ESE,122,1.0,2.0,65,0.00,,,0.00,67,Wunderground v.1.15,2013-04-22 11:45:00,
2013-04-22 07:50:00,44.3,32.1,30.21,ESE,114,1.0,1.0,62,0.00,,,0.00,81,Wunderground v.1.15,2013-04-22 11:50:00,
2013-04-22 08:00:00,45.9,31.9,30.21,SE,127,2.0,2.0,58,0.00,,,0.00,111,Wunderground v.1.15,2013-04-22 12:00:00,
2013-04-22 08:05:00,46.5,32.1,30.21,ESE,104,2.0,2.0,57,0.00,,,0.00,125,Wunderground v.1.15,2013-04-22 12:05:00,
2013-04-22 08:15:00,47.4,31.6,30.21,SE,145,3.0,4.0,54,0.00,,,0.00,156,Wunderground v.1.15,2013-04-22 12:15:00,
2013-04-22 08:20:00,47.8,31.9,30.21,SE,143,3.0,3.0,54,0.00,,,0.00,178,Wunderground v.1.15,2013-04-22 12:20:00,
2013-04-22 08:25:00,48.4,32.0,30.21,SSE,150,2.0,3.0,53,0.00,,,0.00,199,Wunderground v.1.15,2013-04-22 12:25:00,
2013-04-22 08:35:00,49.3,31.9,30.21,SE,129,1.0,3.0,51,0.00,,,0.00,190,Wunderground v.1.15,2013-04-22 12:35:00,
2013-04-22 08:40:00,49.3,31.4,30.21,SE,135,2.0,2.0,50,0.00,,,0.00,234,Wunderground v.1.15,2013-04-22 12:40:00,
2013-04-22 09:05:00,50.3,31.8,30.21,SE,135,4.0,4.0,49,0.00,,,0.00,330,Wunderground v.1.15,2013-04-22 13:05:00,
2013-04-22 09:15:00,50.9,32.4,30.21,ESE,114,3.0,4.0,49,0.00,,,0.00,311,Wunderground v.1.15,2013-04-22 13:15:00,
2013-04-22 09:20:00,51.7,33.6,30.21,SE,146,1.0,1.0,50,0.00,,,0.00,272,Wunderground v.1.15,2013-04-22 13:20:00,
2013-04-22 09:30:00,51.9,33.3,30.21,ESE,119,3.0,3.0,49,0.00,,,0.00,448,Wunderground v.1.15,2013-04-22 13:30:00,
2013-04-22 09:40:00,53.5,33.7,30.21,ESE,102,2.0,2.0,47,0.00,,,0.00,438,Wunderground v.1.15,2013-04-22 13:40:00,
2013-04-22 09:45:00,53.7,34.5,30.21,East,91,3.0,3.0,48,0.00,,,0.00,450,Wunderground v.1.15,2013-04-22 13:45:00,
2013-04-22 09:55:00,54.8,34.9,30.21,South,175,2.0,3.0,47,0.00,,,0.00,478,Wunderground v.1.15,2013-04-22 13:55:00,
2013-04-22 10:00:00,54.8,34.9,30.21,ESE,120,2.0,7.0,47,0.00,,,0.00,494,Wunderground v.1.15,2013-04-22 14:00:00,
2013-04-22 10:10:00,55.4,36.0,30.21,SE,131,3.0,3.0,48,0.00,,,0.00,522,Wunderground v.1.15,2013-04-22 14:10:00,
2013-04-22 10:15:00,56.1,36.1,30.20,SE,144,2.0,3.0,47,0.00,,,0.00,534,Wunderground v.1.15,2013-04-22 14:15:00,
2013-04-22 10:25:00,57.7,37.0,30.21,SE,139,2.0,3.0,46,0.00,,,0.00,570,Wunderground v.1.15,2013-04-22 14:25:00,
2013-04-22 10:30:00,58.2,37.5,30.21,East,99,2.0,7.0,46,0.00,,,0.00,584,Wunderground v.1.15,2013-04-22 14:30:00,
2013-04-22 10:40:00,59.1,38.3,30.20,SE,126,3.0,6.0,46,0.00,,,0.00,610,Wunderground v.1.15,2013-04-22 14:40:00,
2013-04-22 10:45:00,59.5,38.7,30.20,South,182,2.0,6.0,46,0.00,,,0.00,624,Wunderground v.1.15,2013-04-22 14:45:00,
2013-04-22 10:50:00,59.9,39.1,30.20,West,260,1.0,1.0,46,0.00,,,0.00,638,Wunderground v.1.15,2013-04-22 14:50:00,
2013-04-22 11:00:00,60.9,41.1,30.20,SW,229,2.0,2.0,48,0.00,,,0.00,666,Wunderground v.1.15,2013-04-22 15:00:00,
2013-04-22 11:05:00,61.7,40.7,30.20,WSW,249,3.0,4.0,46,0.00,,,0.00,679,Wunderground v.1.15,2013-04-22 15:05:00,
2013-04-22 11:15:00,62.3,41.2,30.20,SW,230,3.0,6.0,46,0.00,,,0.00,701,Wunderground v.1.15,2013-04-22 15:15:00,
2013-04-22 11:20:00,62.4,41.3,30.20,SSE,162,3.0,4.0,46,0.00,,,0.00,714,Wunderground v.1.15,2013-04-22 15:20:00,
2013-04-22 11:25:00,62.6,42.1,30.20,SW,221,4.0,4.0,47,0.00,,,0.00,726,Wunderground v.1.15,2013-04-22 15:25:00,
2013-04-22 11:35:00,63.0,41.9,30.20,WSW,258,3.0,6.0,46,0.00,,,0.00,747,Wunderground v.1.15,2013-04-22 15:35:00,
2013-04-22 11:45:00,63.2,41.5,30.20,WNW,297,4.0,4.0,45,0.00,,,0.00,768,Wunderground v.1.15,2013-04-22 15:45:00,
2013-04-22 11:50:00,63.1,41.4,30.19,WNW,294,5.0,5.0,45,0.00,,,0.00,779,Wunderground v.1.15,2013-04-22 15:50:00,
2013-04-22 12:00:00,63.5,42.3,30.19,West,270,4.0,5.0,46,0.00,,,0.00,798,Wunderground v.1.15,2013-04-22 16:00:00,
2013-04-22 12:05:00,63.8,42.6,30.18,South,186,3.0,5.0,46,0.00,,,0.00,807,Wunderground v.1.15,2013-04-22 16:05:00,
2013-04-22 12:10:00,64.1,42.9,30.18,WSW,256,3.0,3.0,46,0.00,,,0.00,817,Wunderground v.1.15,2013-04-22 16:10:00,
2013-04-22 12:20:00,64.9,42.5,30.18,South,178,3.0,7.0,44,0.00,,,0.00,833,Wunderground v.1.15,2013-04-22 16:20:00,
2013-04-22 12:25:00,65.4,43.5,30.18,West,260,3.0,7.0,45,0.00,,,0.00,844,Wunderground v.1.15,2013-04-22 16:25:00,
2013-04-22 12:35:00,65.5,43.0,30.18,SE,133,3.0,4.0,44,0.00,,,0.00,858,Wunderground v.1.15,2013-04-22 16:35:00,
2013-04-22 12:40:00,65.7,43.2,30.18,South,191,3.0,3.0,44,0.00,,,0.00,867,Wunderground v.1.15,2013-04-22 16:40:00,
2013-04-22 12:45:00,65.9,42.8,30.17,SSW,197,2.0,3.0,43,0.00,,,0.00,872,Wunderground v.1.15,2013-04-22 16:45:00,
2013-04-22 12:55:00,66.8,43.0,30.17,SSE,149,2.0,2.0,42,0.00,,,0.00,882,Wunderground v.1.15,2013-04-22 16:55:00,
2013-04-22 13:00:00,67.6,43.1,30.17,South,173,2.0,3.0,41,0.00,,,0.00,891,Wunderground v.1.15,2013-04-22 17:00:00,
2013-04-22 13:10:00,67.3,42.1,30.16,SW,235,4.0,4.0,40,0.00,,,0.00,918,Wunderground v.1.15,2013-04-22 17:10:00,
2013-04-22 13:15:00,67.5,40.3,30.16,West,269,3.0,6.0,37,0.00,,,0.00,930,Wunderground v.1.15,2013-04-22 17:15:00,
2013-04-22 13:20:00,67.2,36.3,30.16,SSW,203,4.0,4.0,32,0.00,,,0.00,970,Wunderground v.1.15,2013-04-22 17:20:00,
2013-04-22 13:30:00,66.3,40.6,30.15,WNW,298,4.0,5.0,39,0.00,,,0.00,928,Wunderground v.1.15,2013-04-22 17:30:00,
2013-04-22 13:35:00,66.5,40.8,30.15,West,271,3.0,5.0,39,0.00,,,0.00,944,Wunderground v.1.15,2013-04-22 17:35:00,
2013-04-22 13:45:00,66.8,39.7,30.14,SW,217,3.0,3.0,37,0.00,,,0.00,947,Wunderground v.1.15,2013-04-22 17:45:00,
2013-04-22 13:50:00,67.1,39.9,30.13,West,276,3.0,3.0,37,0.00,,,0.00,1000,Wunderground v.1.15,2013-04-22 17:50:00,
2013-04-22 14:00:00,67.7,41.2,30.13,West,278,3.0,3.0,38,0.00,,,0.00,995,Wunderground v.1.15,2013-04-22 18:00:00,
2013-04-22 14:05:00,68.2,40.9,30.13,SW,235,3.0,3.0,37,0.00,,,0.00,250,Wunderground v.1.15,2013-04-22 18:05:00,
2013-04-22 14:10:00,68.0,39.3,30.13,West,266,3.0,4.0,35,0.00,,,0.00,1025,Wunderground v.1.15,2013-04-22 18:10:00,
2013-04-22 14:20:00,68.7,39.9,30.12,West,263,3.0,3.0,35,0.00,,,0.00,1027,Wunderground v.1.15,2013-04-22 18:20:00,
2013-04-22 14:25:00,68.9,39.4,30.12,West,280,3.0,4.0,34,0.00,,,0.00,1034,Wunderground v.1.15,2013-04-22 18:25:00,
2013-04-22 14:35:00,67.9,39.2,30.12,South,183,5.0,8.0,35,0.00,,,0.00,265,Wunderground v.1.15,2013-04-22 18:35:00,
2013-04-22 14:40:00,67.8,39.1,30.11,SW,217,3.0,3.0,35,0.00,,,0.00,311,Wunderground v.1.15,2013-04-22 18:40:00,
2013-04-22 14:50:00,68.4,39.7,30.11,North,354,3.0,3.0,35,0.00,,,0.00,316,Wunderground v.1.15,2013-04-22 18:50:00,
2013-04-22 14:55:00,68.9,40.1,30.11,ESE,119,3.0,3.0,35,0.00,,,0.00,1030,Wunderground v.1.15,2013-04-22 18:55:00,
2013-04-22 15:00:00,69.8,40.2,30.11,SSW,193,3.0,4.0,34,0.00,,,0.00,939,Wunderground v.1.15,2013-04-22 19:00:00,
2013-04-22 15:10:00,69.4,40.5,30.10,West,259,3.0,3.0,35,0.00,,,0.00,251,Wunderground v.1.15,2013-04-22 19:10:00,
2013-04-22 15:15:00,69.4,40.5,30.10,SE,134,2.0,3.0,35,0.00,,,0.00,974,Wunderground v.1.15,2013-04-22 19:15:00,
2013-04-22 15:25:00,70.5,40.0,30.09,NNE,19,2.0,3.0,33,0.00,,,0.00,1005,Wunderground v.1.15,2013-04-22 19:25:00,
2013-04-22 15:30:00,71.0,41.2,30.09,South,172,2.0,2.0,34,0.00,,,0.00,954,Wunderground v.1.15,2013-04-22 19:30:00,
2013-04-22 15:40:00,71.1,41.3,30.09,SE,137,3.0,3.0,34,0.00,,,0.00,926,Wunderground v.1.15,2013-04-22 19:40:00,
2013-04-22 15:45:00,71.2,42.1,30.09,SE,129,3.0,3.0,35,0.00,,,0.00,895,Wunderground v.1.15,2013-04-22 19:45:00,
2013-04-22 15:50:00,71.7,41.8,30.08,NW,317,3.0,3.0,34,0.00,,,0.00,854,Wunderground v.1.15,2013-04-22 19:50:00,
2013-04-22 16:00:00,71.0,40.4,30.08,West,280,3.0,3.0,33,0.00,,,0.00,865,Wunderground v.1.15,2013-04-22 20:00:00,
2013-04-22 16:05:00,71.5,40.1,30.08,SE,135,3.0,3.0,32,0.00,,,0.00,861,Wunderground v.1.15,2013-04-22 20:05:00,
2013-04-22 16:15:00,72.3,40.8,30.07,WNW,291,2.0,7.0,32,0.00,,,0.00,773,Wunderground v.1.15,2013-04-22 20:15:00,
2013-04-22 16:20:00,72.3,40.0,30.07,West,263,3.0,3.0,31,0.00,,,0.00,780,Wunderground v.1.15,2013-04-22 20:20:00,
2013-04-22 16:30:00,71.7,40.3,30.07,South,185,3.0,3.0,32,0.00,,,0.00,810,Wunderground v.1.15,2013-04-22 20:30:00,
2013-04-22 16:40:00,72.4,40.0,30.06,WSW,243,3.0,3.0,31,0.00,,,0.00,759,Wunderground v.1.15,2013-04-22 20:40:00,
2013-04-22 16:45:00,72.9,40.5,30.06,WSW,243,2.0,3.0,31,0.00,,,0.00,751,Wunderground v.1.15,2013-04-22 20:45:00,
2013-04-22 16:55:00,71.9,40.4,30.05,West,261,3.0,3.0,32,0.00,,,0.00,684,Wunderground v.1.15,2013-04-22 20:55:00,
2013-04-22 17:00:00,71.3,40.7,30.05,SW,227,3.0,3.0,33,0.00,,,0.00,179,Wunderground v.1.15,2013-04-22 21:00:00,
2013-04-22 17:10:00,71.8,39.5,30.05,South,177,2.0,4.0,31,0.00,,,0.00,686,Wunderground v.1.15,2013-04-22 21:10:00,
2013-04-22 17:20:00,71.2,39.8,30.05,WSW,238,3.0,3.0,32,0.00,,,0.00,202,Wunderground v.1.15,2013-04-22 21:20:00,
2013-04-22 17:25:00,71.2,39.0,30.05,WSW,240,1.0,3.0,31,0.00,,,0.00,172,Wunderground v.1.15,2013-04-22 21:25:00,
2013-04-22 17:30:00,71.4,39.2,30.05,South,179,0.0,0.0,31,0.00,,,0.00,371,Wunderground v.1.15,2013-04-22 21:30:00,
2013-04-22 17:40:00,71.7,39.4,30.04,SSW,210,2.0,2.0,31,0.00,,,0.00,626,Wunderground v.1.15,2013-04-22 21:40:00,
2013-04-22 17:45:00,72.5,39.3,30.04,ESE,117,1.0,3.0,30,0.00,,,0.00,559,Wunderground v.1.15,2013-04-22 21:45:00,
2013-04-22 17:55:00,72.4,39.2,30.04,East,95,2.0,7.0,30,0.00,,,0.00,475,Wunderground v.1.15,2013-04-22 21:55:00,
2013-04-22 18:00:00,71.9,39.6,30.04,ESE,103,3.0,3.0,31,0.00,,,0.00,434,Wunderground v.1.15,2013-04-22 22:00:00,
2013-04-22 18:10:00,71.0,39.6,30.04,SSE,151,3.0,3.0,32,0.00,,,0.00,297,Wunderground v.1.15,2013-04-22 22:10:00,
2013-04-22 18:15:00,71.1,38.9,30.04,East,86,2.0,3.0,31,0.00,,,0.00,443,Wunderground v.1.15,2013-04-22 22:15:00,
2013-04-22 18:25:00,71.8,39.5,30.03,ESE,111,2.0,8.0,31,0.00,,,0.00,424,Wunderground v.1.15,2013-04-22 22:25:00,
2013-04-22 18:30:00,71.3,39.1,30.03,SE,140,4.0,4.0,31,0.00,,,0.00,397,Wunderground v.1.15,2013-04-22 22:30:00,
2013-04-22 18:39:00,71.3,38.2,30.03,SE,141,5.0,5.0,30,0.00,,,0.00,374,Wunderground v.1.15,2013-04-22 22:39:00,
2013-04-22 18:45:00,71.3,39.1,30.03,ESE,106,5.0,5.0,31,0.00,,,0.00,272,Wunderground v.1.15,2013-04-22 22:45:00,
2013-04-22 18:50:00,71.5,39.3,30.03,SSE,163,3.0,3.0,31,0.00,,,0.00,287,Wunderground v.1.15,2013-04-22 22:50:00,
2013-04-22 19:00:00,71.3,39.9,30.02,ESE,108,3.0,8.0,32,0.00,,,0.00,274,Wunderground v.1.15,2013-04-22 23:00:00,
2013-04-22 19:05:00,71.0,39.6,30.02,SE,142,5.0,8.0,32,0.00,,,0.00,246,Wunderground v.1.15,2013-04-22 23:05:00,
2013-04-22 19:15:00,71.3,39.9,30.02,ESE,116,2.0,3.0,32,0.00,,,0.00,197,Wunderground v.1.15,2013-04-22 23:15:00,
2013-04-22 19:20:00,71.5,40.1,30.02,SE,142,1.0,2.0,32,0.00,,,0.00,174,Wunderground v.1.15,2013-04-22 23:20:00,
2013-04-22 19:25:00,71.2,39.8,30.02,SE,138,1.0,2.0,32,0.00,,,0.00,153,Wunderground v.1.15,2013-04-22 23:25:00,
2013-04-22 19:35:00,71.1,39.7,30.02,SE,137,1.0,3.0,32,0.00,,,0.00,113,Wunderground v.1.15,2013-04-22 23:35:00,
2013-04-22 19:40:00,70.9,41.1,30.02,SSE,151,1.0,1.0,34,0.00,,,0.00,91,Wunderground v.1.15,2013-04-22 23:40:00,
2013-04-22 19:50:00,69.9,42.4,30.02,SSE,157,1.0,1.0,37,0.00,,,0.00,58,Wunderground v.1.15,2013-04-22 23:50:00,
2013-04-22 19:55:00,69.7,41.5,30.02,SSE,157,0.0,1.0,36,0.00,,,0.00,46,Wunderground v.1.15,2013-04-22 23:55:00,
2013-04-22 20:00:00,69.3,43.3,30.02,SSE,157,0.0,0.0,39,0.00,,,0.00,26,Wunderground v.1.15,2013-04-23 00:00:00,
2013-04-22 20:10:00,68.2,41.6,30.02,SSW,194,0.0,0.0,38,0.00,,,0.00,12,Wunderground v.1.15,2013-04-23 00:10:00,
2013-04-22 20:20:00,66.3,43.1,30.02,South,189,0.0,0.0,43,0.00,,,0.00,5,Wunderground v.1.15,2013-04-23 00:20:00,
2013-04-22 20:25:00,65.4,42.9,30.02,South,186,0.0,0.0,44,0.00,,,0.00,0,Wunderground v.1.15,2013-04-23 00:25:00,
2013-04-22 20:34:00,63.8,42.6,30.02,South,185,0.0,0.0,46,0.00,,,0.00,0,Wunderground v.1.15,2013-04-23 00:34:00,
2013-04-22 20:40:00,62.9,42.9,30.02,South,185,0.0,0.0,48,0.00,,,0.00,0,Wunderground v.1.15,2013-04-23 00:40:00,
2013-04-22 20:45:00,61.9,42.5,30.02,South,185,0.0,0.0,49,0.00,,,0.00,0,Wunderground v.1.15,2013-04-23 00:45:00,
2013-04-22 20:55:00,60.2,44.0,30.02,South,185,0.0,0.0,55,0.00,,,0.00,0,Wunderground v.1.15,2013-04-23 00:55:00,
2013-04-22 21:00:00,59.4,44.6,30.02,South,185,0.0,0.0,58,0.00,,,0.00,0,Wunderground v.1.15,2013-04-23 01:00:00,
2013-04-22 21:09:00,58.1,45.6,30.02,South,185,0.0,0.0,63,0.00,,,0.00,0,Wunderground v.1.15,2013-04-23 01:09:00,
2013-04-22 21:15:00,57.4,45.7,30.02,South,185,0.0,0.0,65,0.00,,,0.00,0,Wunderground v.1.15,2013-04-23 01:15:00,
2013-04-22 21:20:00,56.9,45.7,30.03,South,185,0.0,0.0,66,0.00,,,0.00,0,Wunderground v.1.15,2013-04-23 01:20:00,
2013-04-22 21:30:00,56.2,45.4,30.03,South,185,0.0,0.0,67,0.00,,,0.00,0,Wunderground v.1.15,2013-04-23 01:30:00,
2013-04-22 21:35:00,55.7,44.9,30.03,South,185,0.0,0.0,67,0.00,,,0.00,0,Wunderground v.1.15,2013-04-23 01:35:00,
2013-04-22 21:45:00,55.0,45.4,30.03,South,185,0.0,0.0,70,0.00,,,0.00,0,Wunderground v.1.15,2013-04-23 01:45:00,
2013-04-22 21:50:00,54.7,45.5,30.03,South,185,0.0,0.0,71,0.00,,,0.00,0,Wunderground v.1.15,2013-04-23 01:50:00,
2013-04-22 22:00:00,54.1,45.6,30.04,South,185,0.0,0.0,73,0.00,,,0.00,0,Wunderground v.1.15,2013-04-23 02:00:00,
2013-04-22 22:05:00,53.7,44.9,30.04,South,185,0.0,0.0,72,0.00,,,0.00,0,Wunderground v.1.15,2013-04-23 02:05:00,
2013-04-22 22:15:00,53.3,45.2,30.04,South,185,0.0,0.0,74,0.00,,,0.00,0,Wunderground v.1.15,2013-04-23 02:15:00,
2013-04-22 22:20:00,53.0,45.3,30.04,South,185,0.0,0.0,75,0.00,,,0.00,0,Wunderground v.1.15,2013-04-23 02:20:00,
2013-04-22 22:29:00,52.6,44.9,30.04,South,185,0.0,0.0,75,0.00,,,0.00,0,Wunderground v.1.15,2013-04-23 02:29:00,
2013-04-22 22:35:00,52.3,44.6,30.04,South,181,0.0,0.0,75,0.00,,,0.00,0,Wunderground v.1.15,2013-04-23 02:35:00,
2013-04-22 22:40:00,52.1,44.4,30.04,South,177,0.0,0.0,75,0.00,,,0.00,0,Wunderground v.1.15,2013-04-23 02:40:00,
2013-04-22 22:50:00,51.7,44.7,30.04,South,177,0.0,0.0,77,0.00,,,0.00,0,Wunderground v.1.15,2013-04-23 02:50:00,
2013-04-22 22:55:00,51.5,44.5,30.04,South,177,0.0,0.0,77,0.00,,,0.00,0,Wunderground v.1.15,2013-04-23 02:55:00,
2013-04-22 23:04:00,51.1,44.1,30.05,South,177,0.0,0.0,77,0.00,,,0.00,0,Wunderground v.1.15,2013-04-23 03:04:00,
2013-04-22 23:10:00,51.0,44.0,30.04,South,177,0.0,0.0,77,0.00,,,0.00,0,Wunderground v.1.15,2013-04-23 03:10:00,
2013-04-22 23:15:00,50.9,43.9,30.04,South,177,0.0,0.0,77,0.00,,,0.00,0,Wunderground v.1.15,2013-04-23 03:15:00,
2013-04-22 23:25:00,50.6,44.0,30.04,South,177,0.0,0.0,78,0.00,,,0.00,0,Wunderground v.1.15,2013-04-23 03:25:00,
2013-04-22 23:30:00,50.5,43.9,30.04,South,177,0.0,0.0,78,0.00,,,0.00,0,Wunderground v.1.15,2013-04-23 03:30:00,
2013-04-22 23:40:00,50.3,44.0,30.04,South,177,0.0,0.0,79,0.00,,,0.00,0,Wunderground v.1.15,2013-04-23 03:40:00,
2013-04-22 23:45:00,50.1,44.2,30.04,SSE,158,0.0,0.0,80,0.00,,,0.00,0,Wunderground v.1.15,2013-04-23 03:45:00,
2013-04-22 23:55:00,49.9,44.3,30.04,SSE,158,0.0,0.0,81,0.00,,,0.00,0,Wunderground v.1.15,2013-04-23 03:55:00,